CZ-6A DEB, 60766

Orbit data source: Space-Track

CZ-6A DEB, 60766 is space debris in LEO originally from a launch on Tue, 06 Aug 2024 UTC launched from the Taiyaun Space Center, China (TSC). Debris objects in space refer to the collection of defunct objects orbiting the Earth. Examples of debris include non-operational satellites, rocket bodies, and fragments generated from explosions, collisions, or faulty payload assembly.

Loading next visibility...
Identifier
60766, 2024-140ER
Orbit
LEO
Country
Flag of CNCN / PRC
Related business
Manufacturer
SAST
Mission
Spacecraft
Bus & Motor
Unknown
Mass
Unknown
Launch date (UTC)
2024-08-06 (2 years ago)
Launch vehicle
Unknown
Launch site
Taiyaun Space Center, China (TSC)
Object type
Payload
Rocket body
Debris
Shape & HBR
Unknown shape, 0.1 m
Radar Cross Section
Small (<0.1 m²)

Expand to show TLE details & history
Last TLE update: 11 hours ago

TLE from 11 hours ago
0 CZ-6A DEB
1 60766U 24140ER  26118.45640742  .00007549  00000-0  13302-2 0  9992
2 60766  89.0402 279.3629 0087813  61.8920 299.1136 14.64924894 90967
Epoch: 2026-04-28T10:57Z
TLE epoch observation values (Epoch: 2026-04-28T10:57:13.601Z)
Latitude
0.00002°
Longitude
-101.37523°
Altitude
650.701 km
Speed
7.548 km/s
True Right ascension
18h 37m 27s
True Declination
0° 00' 00"
Sunlit
Object was in full shadow at epoch
Visualization orbit readout
Latitude
Unknown
Longitude
Unknown
Altitude
Unknown
Speed
Unknown
Apparent Right ascension
Unknown
Apparent Declination
Unknown
Sunlit
N/A
Visualization observer readout
Local Sidereal Time
05:04:05
Azimuth
Unknown
Elevation
Unknown
Doppler factor
Unknown
Orbital elements
Apogee altitude
736.132 km
Perigee altitude
612.274 km
Semi-major axis
7,052.34 km
Eccentricity
0.00878
Inclination
89.0402°
RAAN
279.3629°
Arg. of periapsis
61.892°
True anomaly
298.22979°
Mean anomaly
299.1136°
Eccentric anomaly
298.67216°
Mean motion
3.66474 °/min
Orbital period
98.23 mins
BSTAR
0.0013302
Loading maneuver chart data...
Computing Atmospheric mass density...
Loading historical data...
Loading historical data...
Loading historical data...
Loading historical data...
Loading historical data...
Loading historical data...
Loading historical data...

Documentation

Showing up to 5 results
|